Simultaneous Nadir Overpasses (SNOs) Predictions

Prediction of SNOs between AQUA and GOES-15 Satellite Orbit:

Table of predicted SNOs for the next 14.0 days since TLE Epoch: 2/3/2024
Index Date Time (AQUA) AQUA Lat,Lon GOES-15 Lat,Lon Distance(km) Time Diff (sec)
1 02/03/2024 09:42:00 0.70, 64.77 0.03, 61.66 353.33 80
2 02/03/2024 22:02:24 0.35, 59.83 -0.03, 61.56 197.30 80
3 02/05/2024 21:46:53 -0.44, 63.62 -0.01, 61.54 236.43 80
4 02/06/2024 10:07:25 -0.66, 58.66 -0.02, 61.63 338.28 80
5 02/08/2024 09:51:54 0.18, 62.45 -0.01, 61.62 94.52 80
6 02/08/2024 22:12:18 0.85, 57.50 0.01, 61.52 455.94 80
7 02/10/2024 21:56:46 0.03, 61.30 0.01, 61.50 23.18 80
8 02/12/2024 21:41:13 -0.76, 65.10 0.00, 61.49 410.00 80
9 02/13/2024 10:01:44 -0.30, 60.13 -0.00, 61.59 165.67 80
10 02/15/2024 09:46:11 0.48, 63.94 -0.00, 61.58 267.49 80
11 02/15/2024 22:06:34 0.51, 58.99 0.00, 61.48 282.75 80
